Weather History for KMRB - December, 2013

Change the Weather History Date:

Thursday, December 5, 2013

  Actual Average Record
Temperature  
Mean Temperature 53 °F 37 °F  
Max Temperature 69 °F 46 °F 78 °F (2001)
Min Temperature 37 °F 28 °F 12 °F (1976)
Degree Days  
Heating Degree Days 12 28  
Month to date heating degree days 117 136  
Since 1 July heating degree days 1208 1206  
Cooling Degree Days 0 0  
Month to date cooling degree days 0 0  
Year to date cooling degree days 1057 895  
Growing Degree Days 2 (Base 50)    
Moisture  
Dew Point 46 °F    
Average Humidity 78    
Maximum Humidity 100    
Minimum Humidity 55    
Precipitation  
Precipitation 0.07 in 0.11 in 1.51 in (1993)
Month to date precipitation 0.07 0.53  
Year to date precipitation 31.23 36.52  
Sea Level Pressure  
Sea Level Pressure 29.98 in    
Wind  
Wind Speed 2 mph (South)    
Max Wind Speed 13 mph    
Max Gust Speed 23 mph    
Visibility 3 miles    
Events Fog , Rain    
T = Trace of Precipitation, MM = Missing Value Source: NWS Daily Summary

Daily Weather History Graph

Daily Weather History Graph

Search for Another Location

Airport or City:

Trip Planner

Search our weather history database for the weather conditions in past years. The results will help you decide how hot, cold, wet, or windy it might be!

Date:

Astronomy

Dec. 05, 2013 Rise Set
Actual Time 7:16 AM EST 4:48 PM EST
Civil Twilight 6:47 AM EST 5:18 PM EST
Nautical Twilight 6:13 AM EST 5:51 PM EST
Astronomical Twilight 5:41 AM EST 6:24 PM EST
Moon 9:35 AM EST (12/5) 8:06 PM EST (12/5)
Length of Visible Light 10h 31m
Length of Day
9h 31m
Waxing Crescent, 10% of the Moon is Illuminated
Dec 5
Waxing Crescent
Dec 9
First Quarter
Dec 17
Full
Dec 25
Last Quarter
Jan 1
New

Hourly Weather History & Observations

Time (EST) Temp. Windchill Dew Point Humidity Pressure Visibility Wind Dir Wind Speed Gust Speed Precip Events Conditions
12:53 AM 46.0 °F - 43.0 °F 89% 30.05 in 4.0 mi Calm Calm - N/A   Overcast
1:53 AM 46.0 °F - 43.0 °F 89% 30.03 in 3.0 mi Calm Calm - N/A   Overcast
2:12 AM 44.1 °F - 42.1 °F 93% 30.03 in 3.0 mi Calm Calm - N/A   Scattered Clouds
2:53 AM 44.1 °F - 42.1 °F 93% 30.04 in 3.0 mi Calm Calm - N/A   Overcast
3:49 AM 42.8 °F - 39.2 °F 87% 30.03 in 2.5 mi Calm Calm - N/A   Scattered Clouds
3:53 AM 41.0 °F - 39.0 °F 93% 30.04 in 2.0 mi Calm Calm - N/A   Partly Cloudy
4:03 AM 41.0 °F - 39.0 °F 93% 30.02 in 1.2 mi Calm Calm - N/A   Partly Cloudy
4:15 AM 41.0 °F - 39.0 °F 93% 30.02 in 0.8 mi Calm Calm - N/A   Clear
4:42 AM 39.0 °F - 37.0 °F 93% 30.02 in 0.5 mi Calm Calm - N/A Fog Fog
4:49 AM 39.2 °F - 37.4 °F 93% 30.01 in 0.2 mi Calm Calm - N/A Fog Fog
4:53 AM 39.9 °F - 37.9 °F 93% 30.02 in 0.2 mi Calm Calm - N/A Fog Fog
5:14 AM 39.9 °F - 37.9 °F 93% 30.01 in 0.5 mi Calm Calm - N/A Fog Fog
5:33 AM 37.9 °F 35.5 °F 37.0 °F 97% 30.01 in 0.2 mi WSW 3.5 mph - N/A Fog Fog
5:53 AM 37.9 °F - 36.0 °F 93% 30.02 in 0.2 mi Calm Calm - N/A Fog Fog
6:27 AM 37.9 °F - 37.0 °F 97% 30.01 in 0.2 mi Calm Calm - N/A Fog Fog
6:53 AM 37.9 °F - 37.0 °F 97% 30.02 in 0.2 mi Calm Calm - N/A Fog Fog
7:50 AM 39.2 °F - 37.4 °F 93% 30.02 in 0.2 mi Calm Calm - N/A Fog Fog
7:53 AM 39.9 °F - 37.9 °F 93% 30.04 in 0.2 mi North - - N/A Fog Fog
8:16 AM 42.1 °F - 39.9 °F 92% 30.03 in 0.2 mi Calm Calm - N/A Fog Fog
8:53 AM 44.1 °F - 43.0 °F 96% 30.03 in 0.2 mi Calm Calm - N/A Fog Fog
9:07 AM 45.0 °F - 44.1 °F 97% 30.03 in 0.2 mi Calm Calm - N/A Fog Fog
9:53 AM 48.9 °F - 46.9 °F 93% 30.02 in 0.5 mi Calm Calm - N/A Fog Fog
10:05 AM 48.9 °F - 46.9 °F 93% 30.02 in 2.0 mi Calm Calm - N/A   Overcast
10:18 AM 50.0 °F - 48.0 °F 93% 30.01 in 4.0 mi Calm Calm - N/A   Mostly Cloudy
10:25 AM 52.0 °F - 48.9 °F 89% 30.01 in 5.0 mi SSW 4.6 mph - N/A   Scattered Clouds
10:53 AM 57.9 °F - 50.0 °F 75% 30.00 in 8.0 mi South 5.8 mph - N/A   Clear
11:53 AM 64.0 °F - 52.0 °F 65% 29.96 in - South 8.1 mph - N/A   Clear
12:53 PM 66.0 °F - 52.0 °F 60% 29.93 in 10.0 mi South 10.4 mph - N/A   Clear
1:53 PM 68.0 °F - 52.0 °F 56% 29.91 in 10.0 mi South 8.1 mph - N/A   Clear
2:53 PM 66.0 °F - 53.1 °F 63% 29.91 in 10.0 mi SE 6.9 mph - N/A   Clear
3:53 PM 64.9 °F - 53.1 °F 65% 29.92 in 10.0 mi Calm Calm - N/A   Partly Cloudy
4:53 PM 63.0 °F - 53.1 °F 70% 29.92 in 10.0 mi Calm Calm - N/A   Partly Cloudy
5:53 PM 60.1 °F - 53.1 °F 78% 29.94 in 10.0 mi Calm Calm - N/A   Scattered Clouds
6:53 PM 57.9 °F - 53.1 °F 84% 29.95 in 8.0 mi Calm Calm - N/A   Partly Cloudy
7:53 PM 57.0 °F - 54.0 °F 89% 29.94 in 7.0 mi Calm Calm - 0.00 in Rain Light Rain
8:53 PM 55.9 °F - 53.1 °F 90% 29.93 in 5.0 mi Calm Calm - 0.01 in   Overcast
9:37 PM 55.0 °F - 53.1 °F 93% 29.91 in 2.0 mi Calm Calm - N/A   Overcast
9:53 PM 55.0 °F - 53.1 °F 93% 29.92 in 2.0 mi Calm Calm - N/A   Overcast
9:58 PM 55.0 °F - 53.1 °F 93% 29.91 in 0.8 mi Calm Calm - N/A   Overcast
10:27 PM 54.0 °F - 52.0 °F 93% 29.92 in 0.8 mi Calm Calm - N/A   Mist
10:43 PM 54.0 °F - 53.1 °F 97% 29.91 in 1.2 mi Calm Calm - N/A   Clear
10:53 PM 54.0 °F - 52.0 °F 93% 29.91 in 2.0 mi Calm Calm - N/A   Scattered Clouds
11:03 PM 53.1 °F - 52.0 °F 96% 29.91 in 1.5 mi Calm Calm - N/A   Mostly Cloudy
11:18 PM 54.0 °F - 53.1 °F 97% 29.91 in 3.0 mi South 3.5 mph - N/A   Overcast
11:36 PM 55.0 °F - 53.1 °F 93% 29.91 in 2.5 mi Calm Calm - 0.03 in Rain Light Rain
11:53 PM 55.0 °F - 53.1 °F 93% 29.91 in 3.0 mi Calm Calm - 0.05 in Rain Light Rain